Time,TemperatureF,DewpointF,PressureIn,WindDirection,WindDirectionDegrees,WindSpeedMPH,WindSpeedGustMPH,Humidity,HourlyPrecipIn,Conditions,Clouds,dailyrainin,SoftwareType,DateUTC
2014-01-11 00:01:00,45.7,43.7,29.64,SSE,158,2.9,4.0,93,0.06,,,0.00,meteobridge,2014-01-11 05:01:00,
2014-01-11 00:02:00,45.7,43.7,29.63,SE,145,2.0,4.9,93,0.07,,,0.01,meteobridge,2014-01-11 05:02:00,
2014-01-11 00:07:00,46.0,44.4,29.64,SSW,212,2.0,4.9,94,0.08,,,0.02,meteobridge,2014-01-11 05:07:00,
2014-01-11 00:12:00,46.6,45.5,29.65,SSE,160,0.0,2.0,96,0.08,,,0.02,meteobridge,2014-01-11 05:12:00,
2014-01-11 00:18:00,46.0,44.4,29.64,South,174,0.0,2.0,94,0.10,,,0.04,meteobridge,2014-01-11 05:18:00,
2014-01-11 00:23:00,45.5,43.9,29.65,WSW,245,0.9,2.0,94,0.11,,,0.05,meteobridge,2014-01-11 05:23:00,
2014-01-11 00:28:00,45.7,44.4,29.64,South,177,2.0,2.0,95,0.13,,,0.07,meteobridge,2014-01-11 05:28:00,
2014-01-11 00:33:00,45.1,43.9,29.64,NE,47,0.9,0.9,95,0.16,,,0.10,meteobridge,2014-01-11 05:33:00,
2014-01-11 00:38:00,45.1,43.9,29.64,SSE,163,0.0,2.0,95,0.18,,,0.12,meteobridge,2014-01-11 05:38:00,
2014-01-11 00:43:00,45.9,44.8,29.63,SSW,207,0.9,2.0,96,0.20,,,0.14,meteobridge,2014-01-11 05:43:00,
2014-01-11 00:48:00,45.9,44.8,29.63,ESE,106,0.0,0.9,96,0.21,,,0.16,meteobridge,2014-01-11 05:48:00,
2014-01-11 00:53:00,45.7,44.6,29.62,SE,138,0.0,2.0,96,0.22,,,0.18,meteobridge,2014-01-11 05:53:00,
2014-01-11 00:58:00,45.9,44.8,29.62,SE,139,0.0,0.9,96,0.22,,,0.21,meteobridge,2014-01-11 05:58:00,
2014-01-11 01:03:00,46.0,45.0,29.61,ESE,107,0.9,2.9,96,0.22,,,0.23,meteobridge,2014-01-11 06:03:00,
2014-01-11 01:08:00,46.2,45.5,29.61,WSW,245,0.9,2.0,97,0.21,,,0.23,meteobridge,2014-01-11 06:08:00,
2014-01-11 01:13:00,45.7,44.6,29.62,SW,224,0.0,0.9,96,0.22,,,0.25,meteobridge,2014-01-11 06:13:00,
2014-01-11 01:18:00,45.3,44.2,29.61,SE,146,0.0,0.9,96,0.23,,,0.27,meteobridge,2014-01-11 06:18:00,
2014-01-11 01:23:00,45.1,44.1,29.61,SSW,203,0.0,0.9,96,0.23,,,0.29,meteobridge,2014-01-11 06:23:00,
2014-01-11 01:29:00,45.3,44.6,29.60,SSE,158,0.0,0.9,97,0.23,,,0.31,meteobridge,2014-01-11 06:29:00,
2014-01-11 01:34:00,45.3,44.6,29.60,WSW,242,0.9,2.0,97,0.23,,,0.33,meteobridge,2014-01-11 06:34:00,
2014-01-11 01:39:00,44.8,43.7,29.59,SW,233,0.9,2.0,96,0.22,,,0.35,meteobridge,2014-01-11 06:39:00,
2014-01-11 01:44:00,44.8,44.1,29.60,SW,226,0.0,0.9,97,0.21,,,0.36,meteobridge,2014-01-11 06:44:00,
2014-01-11 01:49:00,44.2,43.2,29.60,SSW,200,0.0,0.9,96,0.19,,,0.36,meteobridge,2014-01-11 06:49:00,
2014-01-11 01:54:00,44.1,43.0,29.59,SSW,200,0.0,0.9,96,0.17,,,0.36,meteobridge,2014-01-11 06:54:00,
2014-01-11 01:59:00,43.9,42.8,29.58,WNW,297,0.9,2.0,96,0.15,,,0.37,meteobridge,2014-01-11 06:59:00,
2014-01-11 02:04:00,43.9,43.2,29.58,SSE,158,2.0,2.0,97,0.14,,,0.37,meteobridge,2014-01-11 07:04:00,
2014-01-11 02:09:00,43.5,42.4,29.57,SSE,160,0.9,0.9,96,0.14,,,0.37,meteobridge,2014-01-11 07:09:00,
2014-01-11 02:14:00,44.1,43.3,29.58,SSE,155,0.9,0.9,97,0.12,,,0.37,meteobridge,2014-01-11 07:14:00,
2014-01-11 02:19:00,44.1,43.3,29.58,SE,141,0.0,0.0,97,0.11,,,0.38,meteobridge,2014-01-11 07:19:00,
2014-01-11 02:24:00,43.9,43.2,29.57,SE,145,0.9,2.0,97,0.08,,,0.38,meteobridge,2014-01-11 07:24:00,
2014-01-11 02:29:00,43.5,42.8,29.57,WNW,283,0.0,2.9,97,0.07,,,0.38,meteobridge,2014-01-11 07:29:00,
2014-01-11 02:34:00,43.5,42.8,29.57,SSW,208,0.9,0.9,97,0.07,,,0.40,meteobridge,2014-01-11 07:34:00,
2014-01-11 02:39:00,43.2,42.4,29.57,SSW,208,0.0,0.0,97,0.07,,,0.42,meteobridge,2014-01-11 07:39:00,
2014-01-11 02:44:00,43.0,42.3,29.56,ESE,113,0.9,2.0,97,0.08,,,0.44,meteobridge,2014-01-11 07:44:00,
2014-01-11 02:50:00,43.7,43.0,29.55,East,97,0.9,2.0,97,0.10,,,0.46,meteobridge,2014-01-11 07:50:00,
2014-01-11 02:55:00,46.0,45.5,29.54,ENE,61,2.0,4.9,98,0.12,,,0.48,meteobridge,2014-01-11 07:55:00,
2014-01-11 03:00:00,47.8,47.3,29.55,East,96,2.0,4.0,98,0.12,,,0.49,meteobridge,2014-01-11 08:00:00,
2014-01-11 03:05:00,48.6,48.0,29.54,ENE,57,0.9,6.0,98,0.13,,,0.50,meteobridge,2014-01-11 08:05:00,
2014-01-11 03:10:00,48.9,48.4,29.54,SE,139,4.0,4.9,98,0.13,,,0.50,meteobridge,2014-01-11 08:10:00,
2014-01-11 03:15:00,49.3,48.7,29.53,SE,130,2.9,4.0,98,0.13,,,0.50,meteobridge,2014-01-11 08:15:00,
2014-01-11 03:20:00,49.3,48.7,29.53,ESE,122,0.9,4.0,98,0.13,,,0.51,meteobridge,2014-01-11 08:20:00,
2014-01-11 03:25:00,49.3,48.7,29.53,SE,127,0.9,2.9,98,0.14,,,0.52,meteobridge,2014-01-11 08:25:00,
2014-01-11 03:30:00,49.3,48.7,29.53,ENE,72,0.9,6.0,98,0.14,,,0.53,meteobridge,2014-01-11 08:30:00,
2014-01-11 03:35:00,49.3,48.7,29.53,SE,143,2.0,2.0,98,0.15,,,0.55,meteobridge,2014-01-11 08:35:00,
2014-01-11 03:40:00,49.5,48.9,29.52,SE,146,0.0,2.9,98,0.14,,,0.56,meteobridge,2014-01-11 08:40:00,
2014-01-11 03:45:00,49.1,48.6,29.51,SE,141,2.0,4.0,98,0.12,,,0.57,meteobridge,2014-01-11 08:45:00,
2014-01-11 03:50:00,49.3,48.7,29.50,East,95,0.0,2.9,98,0.11,,,0.58,meteobridge,2014-01-11 08:50:00,
2014-01-11 03:55:00,48.7,48.2,29.50,West,267,2.9,4.0,98,0.10,,,0.58,meteobridge,2014-01-11 08:55:00,
2014-01-11 04:00:00,48.4,47.8,29.51,SW,224,2.0,2.9,98,0.09,,,0.58,meteobridge,2014-01-11 09:00:00,
2014-01-11 04:05:00,47.3,46.6,29.50,SW,214,0.9,2.9,97,0.09,,,0.59,meteobridge,2014-01-11 09:05:00,
2014-01-11 04:10:00,46.2,45.1,29.50,SSE,163,0.9,2.0,96,0.09,,,0.59,meteobridge,2014-01-11 09:10:00,
2014-01-11 04:16:00,46.0,45.3,29.51,SSE,163,0.9,2.0,97,0.08,,,0.59,meteobridge,2014-01-11 09:16:00,
2014-01-11 04:21:00,46.0,45.3,29.50,SSE,163,0.0,2.0,97,0.08,,,0.59,meteobridge,2014-01-11 09:21:00,
2014-01-11 04:26:00,46.0,45.3,29.50,SSE,165,0.0,0.9,97,0.08,,,0.60,meteobridge,2014-01-11 09:26:00,
2014-01-11 04:31:00,45.9,45.1,29.50,SSW,207,2.0,2.0,97,0.06,,,0.60,meteobridge,2014-01-11 09:31:00,
2014-01-11 04:36:00,45.3,44.6,29.49,West,269,0.9,2.0,97,0.05,,,0.60,meteobridge,2014-01-11 09:36:00,
2014-01-11 04:41:00,45.7,45.0,29.49,SW,232,0.0,2.9,97,0.03,,,0.60,meteobridge,2014-01-11 09:41:00,
2014-01-11 04:46:00,46.2,45.7,29.49,West,271,2.0,2.9,98,0.03,,,0.60,meteobridge,2014-01-11 09:46:00,
2014-01-11 04:51:00,45.9,45.3,29.50,SSW,205,0.9,0.9,98,0.03,,,0.61,meteobridge,2014-01-11 09:51:00,
2014-01-11 04:57:00,45.3,44.6,29.49,SW,232,0.9,0.9,97,0.03,,,0.61,meteobridge,2014-01-11 09:57:00,
2014-01-11 05:02:00,45.0,44.2,29.49,SE,139,0.9,0.9,97,0.03,,,0.61,meteobridge,2014-01-11 10:02:00,
2014-01-11 05:07:00,45.7,45.1,29.49,SSW,208,0.0,0.9,98,0.02,,,0.61,meteobridge,2014-01-11 10:07:00,
2014-01-11 05:12:00,46.0,45.5,29.48,SSE,166,0.0,2.0,98,0.03,,,0.62,meteobridge,2014-01-11 10:12:00,
2014-01-11 05:17:00,46.2,45.7,29.48,SW,217,0.0,2.9,98,0.03,,,0.62,meteobridge,2014-01-11 10:17:00,
2014-01-11 05:22:00,45.3,44.6,29.48,SW,228,0.0,0.9,97,0.02,,,0.62,meteobridge,2014-01-11 10:22:00,
2014-01-11 05:28:00,45.9,45.3,29.47,South,169,0.0,2.0,98,0.02,,,0.62,meteobridge,2014-01-11 10:28:00,
2014-01-11 05:33:00,46.6,46.0,29.47,SE,145,0.9,2.0,98,0.02,,,0.62,meteobridge,2014-01-11 10:33:00,
2014-01-11 05:38:00,46.2,45.7,29.47,WSW,238,2.0,2.0,98,0.02,,,0.62,meteobridge,2014-01-11 10:38:00,
2014-01-11 05:43:00,45.7,45.0,29.47,SW,234,0.0,2.0,97,0.02,,,0.62,meteobridge,2014-01-11 10:43:00,
2014-01-11 05:48:00,45.1,44.4,29.47,SW,226,2.0,2.0,97,0.02,,,0.62,meteobridge,2014-01-11 10:48:00,
2014-01-11 05:53:00,45.1,44.4,29.46,SW,222,0.0,0.9,97,0.01,,,0.62,meteobridge,2014-01-11 10:53:00,
2014-01-11 05:58:00,44.8,44.1,29.46,South,173,0.0,2.0,97,0.01,,,0.62,meteobridge,2014-01-11 10:58:00,
2014-01-11 06:03:00,45.9,45.3,29.44,ENE,78,2.0,4.9,98,0.01,,,0.62,meteobridge,2014-01-11 11:03:00,
2014-01-11 06:08:00,48.2,47.7,29.42,South,184,4.0,13.0,98,0.02,,,0.63,meteobridge,2014-01-11 11:08:00,
2014-01-11 06:14:00,48.4,47.8,29.44,South,186,0.9,2.0,98,0.01,,,0.63,meteobridge,2014-01-11 11:14:00,
2014-01-11 06:19:00,47.8,47.3,29.43,SW,235,2.0,2.9,98,0.01,,,0.63,meteobridge,2014-01-11 11:19:00,
2014-01-11 06:24:00,46.8,46.2,29.44,WSW,255,2.0,2.9,98,0.01,,,0.63,meteobridge,2014-01-11 11:24:00,
2014-01-11 06:29:00,46.2,45.7,29.44,WNW,283,0.9,2.0,98,0.01,,,0.63,meteobridge,2014-01-11 11:29:00,
2014-01-11 06:34:00,46.6,46.0,29.44,East,90,0.9,2.9,98,0.01,,,0.63,meteobridge,2014-01-11 11:34:00,
2014-01-11 06:39:00,46.9,46.4,29.44,South,177,0.9,2.0,98,0.01,,,0.63,meteobridge,2014-01-11 11:39:00,
2014-01-11 06:44:00,48.0,47.5,29.45,SE,129,0.9,2.0,98,0.01,,,0.63,meteobridge,2014-01-11 11:44:00,
2014-01-11 06:49:00,48.0,47.5,29.44,SSE,161,0.0,0.9,98,0.01,,,0.63,meteobridge,2014-01-11 11:49:00,
2014-01-11 06:54:00,47.7,47.1,29.43,East,89,0.0,2.0,98,0.01,,,0.63,meteobridge,2014-01-11 11:54:00,
2014-01-11 06:59:00,47.7,47.1,29.42,ENE,67,0.9,2.9,98,0.01,,,0.63,meteobridge,2014-01-11 11:59:00,
2014-01-11 07:04:00,48.0,47.5,29.42,West,265,2.0,2.9,98,0.01,,,0.63,meteobridge,2014-01-11 12:04:00,
2014-01-11 07:09:00,47.7,47.1,29.43,SW,231,2.9,4.9,98,0.00,,,0.63,meteobridge,2014-01-11 12:09:00,
2014-01-11 07:14:00,47.3,46.8,29.43,SSE,152,2.0,2.0,98,0.00,,,0.63,meteobridge,2014-01-11 12:14:00,
2014-01-11 07:20:00,46.8,46.2,29.44,SSW,207,0.0,0.9,98,0.00,,,0.63,meteobridge,2014-01-11 12:20:00,
2014-01-11 07:25:00,46.8,46.2,29.43,ESE,118,0.9,2.0,98,0.00,,,0.63,meteobridge,2014-01-11 12:25:00,
2014-01-11 07:30:00,46.9,46.4,29.43,West,274,0.9,2.0,98,0.00,,,0.63,meteobridge,2014-01-11 12:30:00,
2014-01-11 07:35:00,47.8,47.3,29.43,SE,143,0.9,2.0,98,0.00,,,0.63,meteobridge,2014-01-11 12:35:00,
2014-01-11 07:40:00,47.7,47.1,29.43,SSE,151,4.0,4.0,98,0.00,,,0.63,meteobridge,2014-01-11 12:40:00,
2014-01-11 07:45:00,48.7,48.2,29.42,SSE,156,0.0,2.0,98,0.00,,,0.63,meteobridge,2014-01-11 12:45:00,
2014-01-11 07:50:00,48.6,48.0,29.42,SW,228,2.0,2.9,98,0.00,,,0.63,meteobridge,2014-01-11 12:50:00,
2014-01-11 07:55:00,48.7,48.2,29.41,SSE,167,0.0,2.0,98,0.00,,,0.63,meteobridge,2014-01-11 12:55:00,
2014-01-11 08:00:00,48.4,47.8,29.41,SE,133,2.0,2.0,98,0.00,,,0.63,meteobridge,2014-01-11 13:00:00,
2014-01-11 08:06:00,48.6,48.0,29.41,SE,145,0.9,2.0,98,0.00,,,0.63,meteobridge,2014-01-11 13:06:00,
2014-01-11 08:11:00,48.0,47.5,29.41,SSE,157,0.0,0.9,98,0.00,,,0.63,meteobridge,2014-01-11 13:11:00,
2014-01-11 08:16:00,48.0,47.5,29.41,SSW,207,2.0,2.0,98,0.00,,,0.63,meteobridge,2014-01-11 13:16:00,
2014-01-11 08:21:00,47.7,47.1,29.42,SSW,204,0.0,0.9,98,0.00,,,0.63,meteobridge,2014-01-11 13:21:00,
2014-01-11 08:26:00,47.7,47.1,29.43,SSE,153,0.0,2.0,98,0.00,,,0.63,meteobridge,2014-01-11 13:26:00,
2014-01-11 08:31:00,48.4,47.8,29.43,SSE,158,2.0,6.0,98,0.00,,,0.63,meteobridge,2014-01-11 13:31:00,
2014-01-11 08:36:00,49.3,48.7,29.42,SE,146,0.0,2.0,98,0.00,,,0.63,meteobridge,2014-01-11 13:36:00,
2014-01-11 08:41:00,49.8,49.3,29.42,SSW,208,2.0,2.0,98,0.00,,,0.63,meteobridge,2014-01-11 13:41:00,
2014-01-11 08:46:00,49.6,49.1,29.42,SSW,207,0.9,4.0,98,0.00,,,0.63,meteobridge,2014-01-11 13:46:00,
2014-01-11 08:52:00,49.3,48.7,29.42,WSW,256,0.0,4.9,98,0.00,,,0.63,meteobridge,2014-01-11 13:52:00,
2014-01-11 08:57:00,48.9,48.4,29.42,SW,222,2.0,2.9,98,0.00,,,0.63,meteobridge,2014-01-11 13:57:00,
2014-01-11 09:02:00,47.8,47.3,29.43,West,260,0.9,2.0,98,0.01,,,0.64,meteobridge,2014-01-11 14:02:00,
2014-01-11 09:07:00,47.7,47.1,29.43,ESE,109,2.0,4.9,98,0.01,,,0.64,meteobridge,2014-01-11 14:07:00,
2014-01-11 09:12:00,48.7,48.2,29.42,SSE,150,2.9,8.1,98,0.01,,,0.64,meteobridge,2014-01-11 14:12:00,
2014-01-11 09:17:00,49.5,48.9,29.42,SW,214,4.9,6.0,98,0.01,,,0.64,meteobridge,2014-01-11 14:17:00,
2014-01-11 09:22:00,50.2,49.6,29.42,West,278,2.0,8.9,98,0.01,,,0.64,meteobridge,2014-01-11 14:22:00,
2014-01-11 09:27:00,50.5,50.2,29.43,WSW,245,6.9,10.1,99,0.01,,,0.64,meteobridge,2014-01-11 14:27:00,
2014-01-11 09:32:00,50.7,50.2,29.43,WNW,293,2.9,6.0,98,0.01,,,0.64,meteobridge,2014-01-11 14:32:00,
2014-01-11 09:37:00,50.5,50.0,29.43,SW,219,4.0,4.0,98,0.01,,,0.64,meteobridge,2014-01-11 14:37:00,
2014-01-11 09:42:00,50.7,49.6,29.43,SW,222,2.9,6.9,96,0.01,,,0.64,meteobridge,2014-01-11 14:42:00,
2014-01-11 09:47:00,51.1,49.6,29.44,West,271,2.0,6.9,95,0.01,,,0.64,meteobridge,2014-01-11 14:47:00,
2014-01-11 09:52:00,51.3,49.6,29.44,WNW,295,2.0,11.0,94,0.01,,,0.64,meteobridge,2014-01-11 14:52:00,
2014-01-11 09:57:00,51.3,49.1,29.45,West,278,6.0,6.0,92,0.01,,,0.64,meteobridge,2014-01-11 14:57:00,
2014-01-11 10:02:00,51.3,49.1,29.46,West,276,4.9,8.1,92,0.00,,,0.64,meteobridge,2014-01-11 15:02:00,
2014-01-11 10:07:00,51.3,48.7,29.46,WSW,245,6.0,8.1,91,0.00,,,0.64,meteobridge,2014-01-11 15:07:00,
2014-01-11 10:12:00,51.3,48.4,29.46,West,267,4.0,13.0,90,0.00,,,0.64,meteobridge,2014-01-11 15:12:00,
2014-01-11 10:17:00,51.3,48.2,29.47,NW,306,4.9,8.9,89,0.00,,,0.64,meteobridge,2014-01-11 15:17:00,
2014-01-11 10:22:00,51.3,47.8,29.47,WSW,239,4.0,8.9,88,0.00,,,0.64,meteobridge,2014-01-11 15:22:00,
2014-01-11 10:28:00,51.1,47.3,29.47,West,278,4.9,10.1,87,0.00,,,0.64,meteobridge,2014-01-11 15:28:00,
2014-01-11 10:33:00,50.7,46.8,29.47,WNW,283,6.0,11.0,86,0.00,,,0.64,meteobridge,2014-01-11 15:33:00,
2014-01-11 10:38:00,50.7,46.9,29.47,WSW,250,2.9,6.9,87,0.00,,,0.64,meteobridge,2014-01-11 15:38:00,
2014-01-11 10:43:00,50.5,46.6,29.47,WSW,253,6.0,12.1,86,0.00,,,0.64,meteobridge,2014-01-11 15:43:00,
2014-01-11 10:48:00,50.4,46.0,29.47,WSW,238,6.0,8.9,85,0.00,,,0.64,meteobridge,2014-01-11 15:48:00,
2014-01-11 10:53:00,50.4,46.4,29.46,WSW,250,4.0,6.9,86,0.00,,,0.64,meteobridge,2014-01-11 15:53:00,
2014-01-11 10:58:00,50.4,46.4,29.46,SSW,203,6.0,6.0,86,0.00,,,0.64,meteobridge,2014-01-11 15:58:00,
2014-01-11 11:03:00,50.4,46.4,29.46,West,259,8.9,10.1,86,0.00,,,0.64,meteobridge,2014-01-11 16:03:00,
2014-01-11 11:08:00,50.2,45.9,29.46,West,259,2.0,6.0,85,0.00,,,0.64,meteobridge,2014-01-11 16:08:00,
2014-01-11 11:13:00,50.2,45.9,29.46,West,260,4.9,4.9,85,0.00,,,0.64,meteobridge,2014-01-11 16:13:00,
2014-01-11 11:18:00,49.8,45.9,29.46,WSW,248,6.0,6.9,86,0.00,,,0.64,meteobridge,2014-01-11 16:18:00,
2014-01-11 11:23:00,49.8,45.9,29.46,West,281,10.1,10.1,86,0.00,,,0.64,meteobridge,2014-01-11 16:23:00,
2014-01-11 11:28:00,49.8,45.5,29.46,West,264,2.0,10.1,85,0.00,,,0.64,meteobridge,2014-01-11 16:28:00,
2014-01-11 11:33:00,49.8,45.1,29.46,SW,214,0.9,4.0,84,0.00,,,0.64,meteobridge,2014-01-11 16:33:00,
2014-01-11 11:38:00,49.6,45.0,29.47,WNW,295,10.1,14.1,84,0.00,,,0.64,meteobridge,2014-01-11 16:38:00,
2014-01-11 11:43:00,49.1,43.5,29.47,West,266,8.9,13.0,81,0.00,,,0.64,meteobridge,2014-01-11 16:43:00,
2014-01-11 11:48:00,48.4,42.4,29.47,WNW,293,2.9,10.1,80,0.00,,,0.64,meteobridge,2014-01-11 16:48:00,
2014-01-11 11:53:00,48.0,42.1,29.47,West,273,8.9,17.9,80,0.00,,,0.64,meteobridge,2014-01-11 16:53:00,
2014-01-11 11:58:00,47.8,41.9,29.47,West,262,6.9,17.0,80,0.00,,,0.64,meteobridge,2014-01-11 16:58:00,
2014-01-11 12:03:00,47.7,41.5,29.47,WNW,293,10.1,17.9,79,0.00,,,0.64,meteobridge,2014-01-11 17:03:00,
2014-01-11 12:08:00,47.8,41.9,29.47,West,278,10.1,12.1,80,0.00,,,0.64,meteobridge,2014-01-11 17:08:00,
2014-01-11 12:13:00,47.7,41.7,29.47,SSW,212,4.0,11.0,80,0.00,,,0.64,meteobridge,2014-01-11 17:13:00,
2014-01-11 12:18:00,47.7,41.7,29.47,WNW,282,6.9,15.0,80,0.00,,,0.64,meteobridge,2014-01-11 17:18:00,
2014-01-11 12:24:00,47.3,41.4,29.47,West,262,10.1,19.0,80,0.00,,,0.64,meteobridge,2014-01-11 17:24:00,
2014-01-11 12:29:00,46.9,40.8,29.47,West,273,4.9,11.0,79,0.00,,,0.64,meteobridge,2014-01-11 17:29:00,
2014-01-11 12:34:00,46.8,41.0,29.47,WSW,242,4.9,12.1,80,0.00,,,0.64,meteobridge,2014-01-11 17:34:00,
2014-01-11 12:39:00,46.6,40.5,29.47,WSW,252,6.9,10.1,79,0.00,,,0.64,meteobridge,2014-01-11 17:39:00,
2014-01-11 12:44:00,46.6,40.5,29.47,WSW,250,4.0,6.0,79,0.00,,,0.64,meteobridge,2014-01-11 17:44:00,
2014-01-11 12:49:00,46.8,41.0,29.47,WNW,283,6.0,6.0,80,0.00,,,0.64,meteobridge,2014-01-11 17:49:00,
2014-01-11 12:54:00,47.1,41.4,29.47,SW,214,0.9,2.9,80,0.00,,,0.64,meteobridge,2014-01-11 17:54:00,
2014-01-11 12:59:00,47.1,40.3,29.47,SSW,195,8.9,16.1,77,0.00,,,0.64,meteobridge,2014-01-11 17:59:00,
2014-01-11 13:04:00,47.1,40.6,29.47,West,262,4.9,8.1,78,0.00,,,0.64,meteobridge,2014-01-11 18:04:00,
2014-01-11 13:09:00,46.9,40.5,29.47,West,262,4.0,8.9,78,0.00,,,0.64,meteobridge,2014-01-11 18:09:00,
2014-01-11 13:14:00,46.6,39.7,29.47,WNW,298,6.0,12.1,77,0.00,,,0.64,meteobridge,2014-01-11 18:14:00,
2014-01-11 13:19:00,46.2,40.1,29.47,WNW,295,4.9,8.1,79,0.00,,,0.64,meteobridge,2014-01-11 18:19:00,
2014-01-11 13:24:00,45.9,39.4,29.48,West,270,4.9,16.1,78,0.00,,,0.64,meteobridge,2014-01-11 18:24:00,
2014-01-11 13:29:00,45.7,38.8,29.47,WSW,255,8.9,16.1,77,0.00,,,0.64,meteobridge,2014-01-11 18:29:00,
2014-01-11 13:34:00,45.7,39.2,29.48,WNW,295,6.0,15.0,78,0.00,,,0.64,meteobridge,2014-01-11 18:34:00,
2014-01-11 13:39:00,45.5,39.0,29.48,West,269,4.9,13.0,78,0.00,,,0.64,meteobridge,2014-01-11 18:39:00,
2014-01-11 13:44:00,45.3,38.8,29.48,West,262,6.0,11.0,78,0.00,,,0.64,meteobridge,2014-01-11 18:44:00,
2014-01-11 13:49:00,45.1,38.3,29.49,WSW,245,8.9,13.0,77,0.00,,,0.64,meteobridge,2014-01-11 18:49:00,
2014-01-11 13:54:00,45.1,38.3,29.49,WSW,248,11.0,15.0,77,0.00,,,0.64,meteobridge,2014-01-11 18:54:00,
2014-01-11 13:59:00,45.0,38.1,29.49,NW,309,6.0,10.1,77,0.00,,,0.64,meteobridge,2014-01-11 18:59:00,
2014-01-11 14:04:00,44.4,38.3,29.49,NW,311,8.9,16.1,79,0.00,,,0.64,meteobridge,2014-01-11 19:04:00,
2014-01-11 14:09:00,43.3,38.3,29.50,WNW,295,8.1,13.0,82,0.00,,,0.64,meteobridge,2014-01-11 19:09:00,
2014-01-11 14:14:00,42.8,37.9,29.50,West,281,6.0,15.0,83,0.00,,,0.64,meteobridge,2014-01-11 19:14:00,
2014-01-11 14:19:00,42.6,37.8,29.51,SW,232,8.1,10.1,83,0.00,,,0.64,meteobridge,2014-01-11 19:19:00,
2014-01-11 14:25:00,42.6,37.6,29.50,WSW,239,6.0,8.1,82,0.00,,,0.64,meteobridge,2014-01-11 19:25:00,
2014-01-11 14:30:00,42.6,37.6,29.50,WSW,245,8.1,8.9,82,0.00,,,0.64,meteobridge,2014-01-11 19:30:00,
2014-01-11 14:35:00,43.0,37.9,29.50,WSW,241,8.1,11.0,82,0.00,,,0.64,meteobridge,2014-01-11 19:35:00,
2014-01-11 14:40:00,43.3,37.9,29.51,WSW,249,4.9,8.9,81,0.00,,,0.64,meteobridge,2014-01-11 19:40:00,
2014-01-11 14:45:00,43.7,38.3,29.51,SSW,211,6.0,10.1,81,0.00,,,0.64,meteobridge,2014-01-11 19:45:00,
2014-01-11 14:50:00,43.9,38.1,29.51,WSW,239,2.9,8.9,80,0.00,,,0.64,meteobridge,2014-01-11 19:50:00,
2014-01-11 14:55:00,44.1,37.9,29.52,WNW,285,6.9,8.9,79,0.00,,,0.64,meteobridge,2014-01-11 19:55:00,
2014-01-11 15:00:00,44.2,37.6,29.52,West,266,6.9,12.1,77,0.00,,,0.64,meteobridge,2014-01-11 20:00:00,
2014-01-11 15:05:00,44.1,37.4,29.52,West,280,8.1,13.0,77,0.00,,,0.64,meteobridge,2014-01-11 20:05:00,
2014-01-11 15:08:00,43.9,37.2,29.52,WNW,294,4.9,13.0,77,0.00,,,0.64,meteobridge,2014-01-11 20:08:00,
2014-01-11 15:13:00,43.9,37.4,29.52,WNW,283,6.9,10.1,78,0.00,,,0.64,meteobridge,2014-01-11 20:13:00,
2014-01-11 15:18:00,43.7,37.2,29.53,WNW,302,2.9,6.0,78,0.00,,,0.64,meteobridge,2014-01-11 20:18:00,
2014-01-11 15:23:00,43.5,37.4,29.53,WNW,296,4.9,6.0,79,0.00,,,0.64,meteobridge,2014-01-11 20:23:00,
2014-01-11 15:28:00,43.5,37.4,29.54,West,281,6.0,10.1,79,0.00,,,0.64,meteobridge,2014-01-11 20:28:00,
2014-01-11 15:33:00,43.5,37.0,29.54,WSW,250,8.1,11.0,78,0.00,,,0.64,meteobridge,2014-01-11 20:33:00,
2014-01-11 15:38:00,43.3,36.9,29.54,SW,235,4.9,15.0,78,0.00,,,0.64,meteobridge,2014-01-11 20:38:00,
2014-01-11 15:43:00,43.3,36.7,29.55,West,265,4.9,11.0,77,0.00,,,0.64,meteobridge,2014-01-11 20:43:00,
2014-01-11 15:48:00,43.3,36.7,29.54,West,278,6.9,13.0,77,0.00,,,0.64,meteobridge,2014-01-11 20:48:00,
2014-01-11 15:53:00,43.2,36.7,29.55,West,276,2.9,10.1,78,0.00,,,0.64,meteobridge,2014-01-11 20:53:00,
2014-01-11 15:58:00,42.6,36.9,29.55,SW,236,11.0,15.0,80,0.00,,,0.64,meteobridge,2014-01-11 20:58:00,
2014-01-11 16:03:00,42.4,37.0,29.55,West,277,4.9,13.0,81,0.00,,,0.64,meteobridge,2014-01-11 21:03:00,
2014-01-11 16:08:00,42.3,36.9,29.56,West,274,6.9,8.9,81,0.00,,,0.64,meteobridge,2014-01-11 21:08:00,
2014-01-11 16:13:00,42.1,37.0,29.56,WNW,285,2.0,6.0,82,0.00,,,0.64,meteobridge,2014-01-11 21:13:00,
2014-01-11 16:18:00,41.9,36.5,29.57,SW,218,8.9,15.0,81,0.00,,,0.64,meteobridge,2014-01-11 21:18:00,
2014-01-11 16:23:00,41.7,36.7,29.57,West,262,6.0,17.9,82,0.00,,,0.64,meteobridge,2014-01-11 21:23:00,
2014-01-11 16:29:00,41.5,36.5,29.57,West,274,8.1,8.1,82,0.00,,,0.64,meteobridge,2014-01-11 21:29:00,
2014-01-11 16:34:00,41.4,36.0,29.57,West,262,6.0,8.9,81,0.00,,,0.64,meteobridge,2014-01-11 21:34:00,
2014-01-11 16:39:00,41.4,36.0,29.58,SSW,203,4.0,8.9,81,0.00,,,0.64,meteobridge,2014-01-11 21:39:00,
2014-01-11 16:44:00,41.2,35.4,29.58,West,277,4.9,8.1,80,0.00,,,0.64,meteobridge,2014-01-11 21:44:00,
2014-01-11 16:49:00,41.2,35.2,29.58,West,260,8.9,11.0,79,0.00,,,0.64,meteobridge,2014-01-11 21:49:00,
2014-01-11 16:54:00,41.0,35.2,29.59,WNW,283,12.1,12.1,80,0.00,,,0.64,meteobridge,2014-01-11 21:54:00,
2014-01-11 16:59:00,40.8,35.1,29.59,West,263,4.0,8.9,80,0.00,,,0.64,meteobridge,2014-01-11 21:59:00,
2014-01-11 17:04:00,40.6,34.9,29.59,West,266,4.9,11.0,80,0.00,,,0.64,meteobridge,2014-01-11 22:04:00,
2014-01-11 17:09:00,40.6,35.2,29.59,WSW,256,2.0,6.9,81,0.00,,,0.64,meteobridge,2014-01-11 22:09:00,
2014-01-11 17:14:00,40.5,35.1,29.60,WNW,291,6.0,10.1,81,0.00,,,0.64,meteobridge,2014-01-11 22:14:00,
2014-01-11 17:19:00,40.3,34.9,29.60,WSW,243,11.0,15.0,81,0.00,,,0.64,meteobridge,2014-01-11 22:19:00,
2014-01-11 17:24:00,40.1,34.7,29.61,West,274,8.9,12.1,81,0.00,,,0.64,meteobridge,2014-01-11 22:24:00,
2014-01-11 17:29:00,39.9,34.5,29.61,WSW,257,2.0,8.1,81,0.00,,,0.64,meteobridge,2014-01-11 22:29:00,
2014-01-11 17:34:00,39.9,34.9,29.61,SW,232,2.9,6.9,82,0.00,,,0.64,meteobridge,2014-01-11 22:34:00,
2014-01-11 17:40:00,39.7,34.7,29.61,WSW,242,4.9,4.9,82,0.00,,,0.64,meteobridge,2014-01-11 22:40:00,
2014-01-11 17:45:00,39.4,34.3,29.61,West,270,6.9,6.9,82,0.00,,,0.64,meteobridge,2014-01-11 22:45:00,
2014-01-11 17:50:00,39.4,34.3,29.62,WSW,243,4.0,6.0,82,0.00,,,0.64,meteobridge,2014-01-11 22:50:00,
2014-01-11 17:55:00,39.4,34.7,29.62,West,265,6.9,6.9,83,0.00,,,0.64,meteobridge,2014-01-11 22:55:00,
2014-01-11 18:00:00,39.4,34.3,29.62,WNW,288,0.0,2.9,82,0.00,,,0.64,meteobridge,2014-01-11 23:00:00,
2014-01-11 18:05:00,39.2,34.2,29.63,SSW,198,6.9,11.0,82,0.00,,,0.64,meteobridge,2014-01-11 23:05:00,
2014-01-11 18:10:00,39.0,34.0,29.63,SW,228,0.0,8.9,82,0.00,,,0.64,meteobridge,2014-01-11 23:10:00,
2014-01-11 18:15:00,39.0,34.0,29.63,West,272,6.0,8.1,82,0.00,,,0.64,meteobridge,2014-01-11 23:15:00,
2014-01-11 18:20:00,39.0,34.0,29.63,SW,232,6.0,6.0,82,0.00,,,0.64,meteobridge,2014-01-11 23:20:00,
2014-01-11 18:25:00,39.0,33.6,29.63,West,274,2.0,8.1,81,0.00,,,0.64,meteobridge,2014-01-11 23:25:00,
2014-01-11 18:30:00,39.0,33.6,29.64,WSW,246,6.9,10.1,81,0.00,,,0.64,meteobridge,2014-01-11 23:30:00,
2014-01-11 18:35:00,38.8,33.4,29.64,West,273,8.1,10.1,81,0.00,,,0.64,meteobridge,2014-01-11 23:35:00,
2014-01-11 18:40:00,38.8,33.4,29.64,West,259,2.0,4.0,81,0.00,,,0.64,meteobridge,2014-01-11 23:40:00,
2014-01-11 18:45:00,38.8,33.8,29.64,WNW,303,4.0,4.9,82,0.00,,,0.64,meteobridge,2014-01-11 23:45:00,
2014-01-11 18:50:00,38.8,33.8,29.64,South,174,2.9,4.0,82,0.00,,,0.64,meteobridge,2014-01-11 23:50:00,
2014-01-11 18:55:00,38.7,33.6,29.65,West,262,2.0,10.1,82,0.00,,,0.64,meteobridge,2014-01-11 23:55:00,
2014-01-11 19:00:00,38.7,33.6,29.65,SW,236,6.0,6.0,82,0.00,,,0.64,meteobridge,2014-01-12 00:00:00,
2014-01-11 19:06:00,38.7,33.6,29.65,West,276,2.9,8.1,82,0.00,,,0.64,meteobridge,2014-01-12 00:06:00,
2014-01-11 19:11:00,38.7,33.6,29.65,WNW,296,4.0,6.9,82,0.00,,,0.64,meteobridge,2014-01-12 00:11:00,
2014-01-11 19:16:00,38.5,33.4,29.66,West,277,4.0,4.0,82,0.00,,,0.64,meteobridge,2014-01-12 00:16:00,
2014-01-11 19:21:00,38.5,33.8,29.66,WNW,285,2.9,4.9,83,0.00,,,0.64,meteobridge,2014-01-12 00:21:00,
2014-01-11 19:26:00,38.5,33.8,29.67,NW,312,2.9,2.9,83,0.00,,,0.64,meteobridge,2014-01-12 00:26:00,
2014-01-11 19:31:00,38.5,33.8,29.67,WNW,303,6.0,6.0,83,0.00,,,0.64,meteobridge,2014-01-12 00:31:00,
2014-01-11 19:36:00,38.5,33.8,29.67,WNW,285,2.0,8.1,83,0.00,,,0.64,meteobridge,2014-01-12 00:36:00,
2014-01-11 19:41:00,38.5,33.4,29.67,WNW,289,4.9,6.9,82,0.00,,,0.64,meteobridge,2014-01-12 00:41:00,
2014-01-11 19:46:00,38.5,33.1,29.68,WNW,288,2.0,10.1,81,0.00,,,0.64,meteobridge,2014-01-12 00:46:00,
2014-01-11 19:51:00,38.3,32.7,29.68,WSW,248,11.0,14.1,80,0.00,,,0.64,meteobridge,2014-01-12 00:51:00,
2014-01-11 19:56:00,38.1,32.5,29.68,West,263,4.9,10.1,80,0.00,,,0.64,meteobridge,2014-01-12 00:56:00,
2014-01-11 20:01:00,38.1,32.5,29.68,West,270,2.9,8.9,80,0.00,,,0.64,meteobridge,2014-01-12 01:01:00,
2014-01-11 20:06:00,37.9,32.4,29.69,WNW,287,6.0,8.1,80,0.00,,,0.64,meteobridge,2014-01-12 01:06:00,
2014-01-11 20:11:00,37.8,32.2,29.69,WSW,250,6.9,6.9,80,0.00,,,0.64,meteobridge,2014-01-12 01:11:00,
2014-01-11 20:16:00,37.8,32.2,29.70,WSW,245,8.1,8.1,80,0.00,,,0.64,meteobridge,2014-01-12 01:16:00,
2014-01-11 20:21:00,37.8,32.2,29.70,WSW,245,8.9,8.9,80,0.00,,,0.64,meteobridge,2014-01-12 01:21:00,
2014-01-11 20:26:00,37.8,32.2,29.71,SW,228,0.9,6.9,80,0.00,,,0.64,meteobridge,2014-01-12 01:26:00,
2014-01-11 20:31:00,37.8,32.5,29.71,West,274,6.9,8.9,81,0.00,,,0.64,meteobridge,2014-01-12 01:31:00,
2014-01-11 20:36:00,37.8,32.2,29.71,West,266,2.9,8.9,80,0.00,,,0.64,meteobridge,2014-01-12 01:36:00,
2014-01-11 20:41:00,37.8,32.2,29.72,West,266,2.9,6.9,80,0.00,,,0.64,meteobridge,2014-01-12 01:41:00,
2014-01-11 20:46:00,37.8,32.2,29.72,West,263,2.0,4.9,80,0.00,,,0.64,meteobridge,2014-01-12 01:46:00,
2014-01-11 20:52:00,37.8,32.5,29.72,SW,235,0.9,2.0,81,0.00,,,0.64,meteobridge,2014-01-12 01:52:00,
2014-01-11 20:57:00,37.8,32.5,29.73,SW,224,6.9,8.1,81,0.00,,,0.64,meteobridge,2014-01-12 01:57:00,
2014-01-11 21:02:00,37.8,32.2,29.73,WSW,256,2.9,6.9,80,0.00,,,0.64,meteobridge,2014-01-12 02:02:00,
2014-01-11 21:07:00,37.8,32.2,29.73,West,271,2.9,8.1,80,0.00,,,0.64,meteobridge,2014-01-12 02:07:00,
2014-01-11 21:12:00,37.8,32.2,29.73,West,277,6.0,8.1,80,0.00,,,0.64,meteobridge,2014-01-12 02:12:00,
2014-01-11 21:17:00,37.8,32.2,29.73,WSW,250,6.9,8.1,80,0.00,,,0.64,meteobridge,2014-01-12 02:17:00,
2014-01-11 21:22:00,37.8,32.2,29.74,West,276,8.1,8.1,80,0.00,,,0.64,meteobridge,2014-01-12 02:22:00,
2014-01-11 21:27:00,37.8,32.2,29.74,West,265,2.9,6.0,80,0.00,,,0.64,meteobridge,2014-01-12 02:27:00,
2014-01-11 21:32:00,37.6,32.0,29.74,West,259,0.9,4.0,80,0.00,,,0.64,meteobridge,2014-01-12 02:32:00,
2014-01-11 21:37:00,37.6,32.4,29.74,SW,233,4.0,4.0,81,0.00,,,0.64,meteobridge,2014-01-12 02:37:00,
2014-01-11 21:42:00,37.6,32.4,29.74,West,280,2.9,4.0,81,0.00,,,0.64,meteobridge,2014-01-12 02:42:00,
2014-01-11 21:47:00,37.6,32.4,29.74,SW,235,4.0,4.0,81,0.00,,,0.64,meteobridge,2014-01-12 02:47:00,
2014-01-11 21:52:00,37.4,32.4,29.74,WSW,243,2.0,4.0,82,0.00,,,0.64,meteobridge,2014-01-12 02:52:00,
2014-01-11 21:57:00,37.4,32.4,29.74,WSW,239,4.9,4.9,82,0.00,,,0.64,meteobridge,2014-01-12 02:57:00,
2014-01-11 22:02:00,37.4,32.4,29.74,SSW,194,0.9,8.1,82,0.00,,,0.64,meteobridge,2014-01-12 03:02:00,
2014-01-11 22:07:00,37.2,32.2,29.74,WSW,252,2.9,4.9,82,0.00,,,0.64,meteobridge,2014-01-12 03:07:00,
2014-01-11 22:12:00,37.2,32.5,29.74,WNW,285,4.9,4.9,83,0.00,,,0.64,meteobridge,2014-01-12 03:12:00,
2014-01-11 22:17:00,37.2,32.5,29.74,SSW,203,0.9,4.9,83,0.00,,,0.64,meteobridge,2014-01-12 03:17:00,
2014-01-11 22:22:00,37.2,32.5,29.74,SW,224,0.9,4.0,83,0.00,,,0.64,meteobridge,2014-01-12 03:22:00,
2014-01-11 22:27:00,37.0,32.4,29.75,WSW,242,0.9,2.0,83,0.00,,,0.64,meteobridge,2014-01-12 03:27:00,
2014-01-11 22:32:00,36.9,32.2,29.75,SW,233,2.9,2.9,83,0.00,,,0.64,meteobridge,2014-01-12 03:32:00,
2014-01-11 22:38:00,36.9,32.5,29.75,WSW,245,0.0,0.9,84,0.00,,,0.64,meteobridge,2014-01-12 03:38:00,
2014-01-11 22:43:00,36.5,32.4,29.75,SSE,162,2.0,2.9,85,0.00,,,0.64,meteobridge,2014-01-12 03:43:00,
2014-01-11 22:48:00,36.1,32.0,29.75,SSE,158,4.0,4.0,85,0.00,,,0.64,meteobridge,2014-01-12 03:48:00,
2014-01-11 22:53:00,36.0,32.2,29.75,South,176,0.0,2.0,86,0.00,,,0.64,meteobridge,2014-01-12 03:53:00,
2014-01-11 22:58:00,36.0,32.2,29.75,SSW,204,4.0,4.0,86,0.00,,,0.64,meteobridge,2014-01-12 03:58:00,
2014-01-11 23:03:00,35.8,32.4,29.75,SSE,159,0.0,2.0,87,0.00,,,0.64,meteobridge,2014-01-12 04:03:00,
2014-01-11 23:08:00,35.4,32.0,29.75,SE,142,0.9,2.9,87,0.00,,,0.64,meteobridge,2014-01-12 04:08:00,
2014-01-11 23:13:00,35.2,31.8,29.75,SSE,150,0.0,2.0,87,0.00,,,0.64,meteobridge,2014-01-12 04:13:00,
2014-01-11 23:18:00,34.9,31.6,29.75,South,169,2.0,2.0,88,0.00,,,0.64,meteobridge,2014-01-12 04:18:00,
2014-01-11 23:23:00,34.9,32.0,29.75,NNW,328,0.9,2.9,89,0.00,,,0.64,meteobridge,2014-01-12 04:23:00,
2014-01-11 23:28:00,35.2,32.5,29.75,WSW,247,0.9,2.9,90,0.00,,,0.64,meteobridge,2014-01-12 04:28:00,
2014-01-11 23:33:00,35.1,32.2,29.75,SSE,157,0.9,2.9,89,0.00,,,0.64,meteobridge,2014-01-12 04:33:00,
2014-01-11 23:38:00,35.1,32.2,29.75,SSE,167,2.0,2.9,89,0.00,,,0.64,meteobridge,2014-01-12 04:38:00,
2014-01-11 23:43:00,35.1,32.2,29.75,SSE,155,2.0,4.0,89,0.00,,,0.64,meteobridge,2014-01-12 04:43:00,
2014-01-11 23:48:00,34.9,32.2,29.75,SW,224,4.0,4.0,90,0.00,,,0.64,meteobridge,2014-01-12 04:48:00,
2014-01-11 23:53:00,35.1,32.4,29.75,SW,217,2.0,4.9,90,0.00,,,0.64,meteobridge,2014-01-12 04:53:00,
2014-01-11 23:58:00,35.2,32.4,29.75,South,189,2.0,2.0,89,0.00,,,0.64,meteobridge,2014-01-12 04:58:00,